This is the latest recevied weather packets stored in our database for station/object JS2QVS-13. If no packets are shown the sender has not sent any weather packets the latest 10 day(s).
| Time | Temp. | Humidity | Pressure | Rain* | Wind** | Luminosity | Snow |
|---|---|---|---|---|---|---|---|
| 1787746856 | 30° C | 79% | 1005.7 hPa | 0 mm | - | - | - |
| 1787746256 | 30° C | 78% | 1005.8 hPa | 0 mm | - | - | - |
| 1787745658 | 30° C | 78% | 1005.7 hPa | 0 mm | - | - | - |
| 1787745058 | 30° C | 77% | 1005.6 hPa | 0 mm | - | - | - |
| 1787744459 | 30.56° C | 76% | 1005.5 hPa | 0 mm | - | - | - |
| 1787743857 | 30° C | 77% | 1005.6 hPa | 0 mm | - | - | - |
| 1787743257 | 29.44° C | 79% | 1005.6 hPa | 0 mm | - | - | - |
| 1787742656 | 30° C | 78% | 1005.7 hPa | 0 mm | - | - | - |
| 1787742057 | 30° C | 78% | 1005.6 hPa | 0 mm | - | - | - |
| 1787741462 | 30° C | 78% | 1005.7 hPa | 0 mm | - | - | - |
| 1787740857 | 30° C | 76% | 1005.9 hPa | 0 mm | - | - | - |
| 1787740257 | 30.56° C | 75% | 1005.6 hPa | 0 mm | - | - | - |
| 1787739657 | 30.56° C | 75% | 1005.6 hPa | 0 mm | - | - | - |
| 1787739057 | 30.56° C | 76% | 1005.3 hPa | 0 mm | - | - | - |
| 1787738456 | 30.56° C | 76% | 1004.7 hPa | 0 mm | - | - | - |
| 1787737857 | 30° C | 76% | 1003.9 hPa | 0 mm | - | - | - |
| 1787737257 | 30.56° C | 76% | 1003.8 hPa | 0 mm | - | - | - |
| 1787736657 | 30.56° C | 76% | 1003.7 hPa | 0 mm | - | - | - |
| 1787736058 | 30° C | 80% | 1003.5 hPa | 0 mm | - | - | - |
| 1787735457 | 30° C | 79% | 1003.8 hPa | 0 mm | - | - | - |
| 1787734856 | 30° C | 79% | 1003.8 hPa | 0 mm | - | - | - |
| 1787734257 | 30° C | 78% | 1004.1 hPa | 0 mm | - | - | - |
| 1787733656 | 30° C | 78% | 1004 hPa | 0 mm | - | - | - |
| 1787733058 | 30° C | 78% | 1004 hPa | 0 mm | - | - | - |
| 1787732458 | 30° C | 77% | 1003.9 hPa | 0 mm | - | - | - |
* Rain latest hour (hover to see other rain measurements)
** Current wind speed in m/s (hover to see current wind gust speed)